BEIDOU-3 M14 (C33)

Last updated on Oct. 23, 2020, 5:57 a.m. UTC

1 43623U 18072B   20296.62228027  .00000029  00000-0  00000-0 0  9995
2 43623  55.1842 131.6266 0003271 335.6272 201.7308  1.86231953 14229
UTC
Height (km)
Latitude
Longitude
Inclination
Orbital Period
UTC large
Height (km)
Speed (km/s)
/
Latitude / Longitude
Inclination (degrees)
Orbital Period (minutes)
Azimuth
Elevation
Range (km)
Doppler Factor
iOS Compass Heading
iOS Angle

Next 30 passes for location: Hong Kong

Rise time Rise Azimuth (degrees) Set time Set Azimuth (degrees) Duration Max altitude (degrees)

No matching passes for this satellites